Location: Ferma
(41.9500°N, 44.5167°E)
Time: 19:13:41
(UTC+00:00)

CZ-2C R/B - Pass Details

Date: 24 October 2021
Orbit: 387 x 573 km, 35.0° (Epoch: 02 December)

Event Time Altitude Azimuth Distance (km) Brightness Sun altitude
Rises 15:29:21 0° 260° (W) 2,516 6.5 -16.0°
Reaches altitude 10° 15:32:14 10° 238° (WSW) 1,591 4.6 -16.5°
Maximum altitude 15:34:28 16° 200° (SSW) 1,250 3.4 -16.9°
Enters shadow 15:36:30 11° 163° (SSE) 1,490 3.4 -17.3°
